Tracking 29510 objects as of 15-Sep-2024
HD Live streaming from Space Station
objects crossing your sky now

STARLINK-4080

Track STARLINK-4080 now!
10-day predictions
STARLINK-4080 is classified as:


NORAD ID: 52835
Int'l Code: 2022-062F
Perigee: 546.0 km
Apogee: 548.0 km
Inclination: 53.2 °
Period: 95.4 minutes
Semi major axis: 6917 km
RCS: Unknown
Launch date: June 17, 2022
Source: United States (US)
Launch site: AIR FORCE EASTERN TEST RANGE (AFETR)
Your satellite tracking list
Your tracking list is empty




NASA's NSSDC Master Catalog

Two Line Element Set (TLE):
1 52835U 22062F   24259.10602158  .00006532  00000-0  42841-3 0  9998
2 52835  53.2154 300.8965 0001438  82.0501 278.0654 15.08814503124170
Source of the keplerian elements: AFSPC